�N����,����,�~����,�C��,���x,�C��,����,���ϕ���,�ő�u�ԕ���,�ő厞����,���˗�,�I�_���x,�n�����x,�ő啗���N��,DTYPE
"20/09/05","00:10",0.0,25.2,88.4,1008.6,343.1,1.2,2.4,329.0,0.00,23.2,27.1,"00:02:08",1
"20/09/05","00:20",0.0,25.2,88.6,1008.3,329.8,1.1,2.0,342.1,0.00,23.2,27.0,"00:15:36",1
"20/09/05","00:30",0.0,25.2,88.8,1008.1,333.3,1.6,3.1,346.2,0.00,23.3,26.8,"00:26:32",1
"20/09/05","00:40",0.0,25.1,88.9,1008.3,343.5,1.5,2.7,356.2,0.00,23.2,26.9,"00:30:40",1
"20/09/05","00:50",0.0,25.1,89.0,1007.6,333.2,1.3,2.9,337.0,0.00,23.2,26.9,"00:44:48",1
"20/09/05","01:00",0.0,25.1,89.1,1007.8,332.6,1.5,2.6,339.1,0.00,23.2,26.7,"00:53:52",1
"20/09/05","01:10",0.0,25.0,89.2,1008.1,343.7,1.6,2.9,344.3,0.00,23.1,26.7,"01:01:12",1
"20/09/05","01:20",0.0,25.0,89.3,1008.1,340.1,1.7,4.7,345.6,0.00,23.2,26.7,"01:11:28",1
"20/09/05","01:30",0.0,25.0,89.3,1008.1,343.9,1.2,2.7,347.4,0.00,23.2,26.6,"01:22:00",1
"20/09/05","01:40",0.0,24.9,89.4,1008.3,339.5,1.3,3.1,341.7,0.00,23.1,26.6,"01:35:12",1
"20/09/05","01:50",0.0,24.9,89.5,1008.6,345.5,1.8,3.4,340.3,0.00,23.1,26.7,"01:45:20",1
"20/09/05","02:00",0.0,24.9,89.6,1008.3,341.9,2.0,4.7,344.8,0.00,23.1,26.5,"01:53:52",1
"20/09/05","02:10",0.0,24.9,89.5,1008.3,330.0,1.8,3.2,344.8,0.00,23.1,26.5,"02:04:08",1
"20/09/05","02:20",0.0,25.0,89.5,1008.3,342.0,1.6,3.2,357.3,0.00,23.2,26.5,"02:18:16",1
"20/09/05","02:30",0.0,24.9,89.5,1008.1,344.1,1.7,2.8,15.3,0.00,23.1,26.4,"02:25:36",1
"20/09/05","02:40",0.0,24.9,89.6,1008.6,334.1,1.5,2.4,335.3,0.00,23.1,26.4,"02:31:04",1
"20/09/05","02:50",0.0,24.8,89.6,1008.6,346.6,1.3,3.7,342.0,0.00,23.0,26.2,"02:47:12",1
"20/09/05","03:00",0.0,24.9,89.7,1008.3,341.5,1.5,2.5,344.5,0.00,23.1,26.2,"02:58:48",1
"20/09/05","03:10",0.0,24.8,89.7,1008.3,335.6,1.8,3.7,341.3,0.00,23.0,26.5,"03:06:16",1
"20/09/05","03:20",0.0,24.8,89.8,1007.8,334.8,2.1,3.6,337.8,0.00,23.1,26.3,"03:16:48",1
"20/09/05","03:30",0.0,24.8,89.8,1008.3,331.4,2.0,4.3,344.1,0.00,23.1,26.3,"03:29:36",1
"20/09/05","03:40",0.0,24.8,89.8,1008.1,339.5,1.8,3.4,334.5,0.00,23.1,26.2,"03:35:28",1
"20/09/05","03:50",0.0,24.8,89.8,1008.1,330.8,1.8,3.4,339.7,0.00,23.1,26.3,"03:46:56",1
"20/09/05","04:00",0.0,24.9,89.8,1007.8,343.4,1.8,2.9,358.7,0.00,23.1,26.2,"03:53:28",1
"20/09/05","04:10",0.0,24.9,89.8,1007.8,341.4,1.7,4.1,345.3,0.00,23.1,26.3,"04:07:52",1
"20/09/05","04:20",0.0,24.8,89.8,1007.6,337.2,1.5,2.8,314.4,0.00,23.1,26.2,"04:10:32",1
"20/09/05","04:30",0.0,24.8,89.8,1007.8,342.7,1.3,2.9,339.9,0.00,23.1,26.2,"04:26:32",1
"20/09/05","04:40",0.0,24.7,89.9,1007.6,335.1,1.5,3.1,346.7,0.00,23.0,26.1,"04:38:48",1
"20/09/05","04:50",0.0,24.7,90.0,1007.8,338.1,1.6,2.9,347.0,0.00,23.0,26.2,"04:40:40",1
"20/09/05","05:00",0.0,24.6,90.1,1007.6,347.8,1.0,2.7,325.4,0.00,22.9,26.1,"04:53:04",1
"20/09/05","05:10",0.0,24.6,90.2,1008.1,332.7,1.7,3.4,340.4,0.00,22.9,26.0,"05:08:00",1
"20/09/05","05:20",0.0,24.7,90.3,1007.6,339.9,1.6,3.2,348.1,0.00,23.0,26.0,"05:12:48",1
"20/09/05","05:30",0.0,24.6,90.3,1007.8,336.4,1.7,3.9,347.4,0.00,22.9,26.1,"05:25:36",1
"20/09/05","05:40",0.0,24.6,90.4,1008.3,340.9,1.3,2.8,348.8,0.00,23.0,26.1,"05:30:08",1
"20/09/05","05:50",0.0,24.6,90.5,1007.8,326.8,1.0,1.9,341.3,0.00,23.0,26.1,"05:46:56",1
"20/09/05","06:00",0.0,24.7,90.6,1008.3,286.7,0.8,1.7,336.4,0.00,23.1,26.0,"05:51:44",1
"20/09/05","06:10",0.0,24.9,90.6,1007.8,301.2,0.8,2.7,324.5,0.01,23.3,26.1,"06:02:32",1
"20/09/05","06:20",0.0,24.9,90.6,1008.1,310.8,1.0,2.0,312.2,0.02,23.3,26.2,"06:15:44",1
"20/09/05","06:30",0.0,25.2,90.5,1008.3,323.1,1.0,1.9,340.7,0.02,23.6,26.2,"06:22:40",1
"20/09/05","06:40",0.0,25.8,90.3,1008.1,324.0,0.8,1.7,327.1,0.04,24.1,26.1,"06:34:48",1
"20/09/05","06:50",0.0,26.5,89.8,1008.1,340.2,0.3,1.0,332.8,0.05,24.7,26.2,"06:40:32",1
"20/09/05","07:00",0.0,26.8,89.1,1008.1,343.4,0.5,1.4,340.6,0.05,24.9,26.3,"06:53:36",1
"20/09/05","07:10",0.0,27.6,88.0,1007.8,26.8,0.2,0.9,337.2,0.08,25.5,26.4,"07:04:24",1
"20/09/05","07:20",0.0,27.7,86.3,1007.8,347.6,0.7,1.7,358.6,0.11,25.2,26.4,"07:14:00",1
"20/09/05","07:30",0.0,28.0,84.1,1007.4,319.8,1.1,2.1,315.2,0.12,25.1,26.4,"07:27:28",1
"20/09/05","07:40",0.0,28.3,82.3,1007.1,283.1,0.8,1.8,293.2,0.15,25.0,26.5,"07:33:12",1
"20/09/05","07:50",0.0,28.7,80.4,1007.6,269.5,0.6,1.6,335.7,0.17,25.0,26.7,"07:47:52",1
"20/09/05","08:00",0.0,29.2,78.3,1007.6,241.2,0.6,1.8,210.6,0.20,25.1,26.7,"07:53:52",1
"20/09/05","08:10",0.0,29.5,76.6,1008.3,238.9,0.8,2.0,200.5,0.22,25.0,27.1,"08:03:52",1
"20/09/05","08:20",0.0,29.9,75.0,1008.3,9.0,0.6,1.7,338.0,0.25,25.0,27.2,"08:14:16",1
"20/09/05","08:30",0.0,30.3,73.3,1008.3,96.4,0.8,1.9,69.6,0.28,25.0,27.5,"08:25:20",1
"20/09/05","08:40",0.0,30.9,72.4,1008.6,125.8,0.7,1.7,197.0,0.31,25.4,27.7,"08:36:56",1
"20/09/05","08:50",0.0,30.9,70.6,1008.8,228.9,0.6,2.1,352.5,0.27,25.0,27.7,"08:40:24",1
"20/09/05","09:00",0.0,30.8,70.6,1008.8,13.4,0.8,2.4,347.8,0.33,24.9,27.7,"08:53:28",1
"20/09/05","09:10",0.0,30.8,69.7,1008.6,29.1,0.7,1.8,24.0,0.27,24.7,28.2,"09:02:00",1
"20/09/05","09:20",0.0,31.3,69.3,1008.8,97.7,1.0,2.8,227.6,0.40,25.0,28.4,"09:15:12",1
"20/09/05","09:30",0.0,31.8,68.2,1009.3,100.4,1.1,3.6,115.6,0.43,25.2,28.5,"09:26:16",1
"20/09/05","09:40",0.0,31.9,66.0,1009.5,157.7,1.0,2.7,207.0,0.45,24.8,28.7,"09:39:12",1
"20/09/05","09:50",0.0,31.5,68.4,1009.3,209.2,2.0,4.1,203.9,0.35,25.0,28.9,"09:44:16",1
"20/09/05","10:00",0.0,31.8,67.9,1009.0,186.6,1.8,3.9,221.4,0.46,25.2,29.0,"09:56:40",1
"20/09/05","10:10",0.0,32.3,65.4,1009.0,142.7,1.2,2.7,154.2,0.48,25.0,29.4,"10:04:32",1
"20/09/05","10:20",0.0,32.3,64.2,1008.8,180.8,2.1,4.3,202.5,0.51,24.7,29.6,"10:19:44",1
"20/09/05","10:30",0.0,32.6,64.8,1009.0,174.9,1.8,4.8,216.8,0.49,25.1,29.7,"10:20:08",1
"20/09/05","10:40",0.0,32.9,63.1,1008.8,170.8,1.3,3.1,211.2,0.54,25.0,30.0,"10:31:36",1
"20/09/05","10:50",0.0,33.4,60.7,1009.3,159.3,0.8,2.5,213.5,0.54,24.8,30.4,"10:49:04",1
"20/09/05","11:00",0.0,33.9,60.3,1009.0,163.1,1.0,2.5,211.6,0.56,25.2,30.6,"10:55:12",1
"20/09/05","11:10",0.0,33.9,60.6,1008.8,125.3,1.3,3.1,109.1,0.59,25.2,30.7,"11:03:52",1
"20/09/05","11:20",0.0,33.6,58.9,1008.6,150.1,1.6,3.3,216.3,0.58,24.5,31.0,"11:18:16",1
"20/09/05","11:30",0.0,34.1,58.8,1008.6,171.8,1.3,3.5,198.1,0.57,24.9,31.2,"11:25:20",1
"20/09/05","11:40",0.0,34.4,57.3,1008.6,183.9,1.2,3.1,174.9,0.58,24.8,31.6,"11:37:20",1
"20/09/05","11:50",0.0,34.1,57.3,1008.6,218.2,1.7,4.1,219.8,0.57,24.5,31.8,"11:49:44",1
"20/09/05","12:00",0.0,34.4,57.3,1008.1,180.4,1.6,4.2,221.8,0.57,24.8,32.0,"11:53:28",1
"20/09/05","12:10",0.0,34.9,53.8,1008.1,46.3,0.8,1.8,340.8,0.57,24.2,32.2,"12:09:20",1
"20/09/05","12:20",0.0,35.2,53.3,1008.1,317.1,1.0,2.1,335.7,0.58,24.3,32.4,"12:13:04",1
"20/09/05","12:30",0.0,34.9,52.2,1007.8,199.3,1.8,4.7,225.2,0.57,23.7,32.5,"12:23:36",1
"20/09/05","12:40",0.0,35.3,51.5,1007.8,209.4,1.0,2.5,222.9,0.56,23.8,32.9,"12:31:20",1
"20/09/05","12:50",0.0,35.2,52.3,1007.6,201.7,2.1,3.9,201.4,0.55,24.0,32.9,"12:43:12",1
"20/09/05","13:00",0.0,35.5,50.3,1007.6,194.3,1.8,3.4,227.4,0.55,23.6,33.1,"12:53:52",1
"20/09/05","13:10",0.0,35.7,49.6,1007.6,207.2,1.2,3.2,110.5,0.56,23.6,33.2,"13:06:00",1
"20/09/05","13:20",0.0,36.0,48.9,1007.6,196.5,1.1,3.4,226.7,0.47,23.6,33.5,"13:14:56",1
"20/09/05","13:30",0.0,36.0,50.0,1007.6,160.1,1.2,4.2,175.4,0.47,24.0,33.4,"13:21:52",1
"20/09/05","13:40",0.0,35.9,48.5,1007.1,197.3,2.1,3.6,224.3,0.54,23.4,33.5,"13:38:16",1
"20/09/05","13:50",0.0,36.6,47.8,1006.9,172.7,1.3,3.3,222.1,0.53,23.8,33.8,"13:41:20",1
"20/09/05","14:00",0.0,36.9,45.8,1007.1,123.0,1.2,3.2,121.8,0.52,23.3,33.8,"13:57:36",1
"20/09/05","14:10",0.0,36.8,47.1,1006.9,110.4,1.2,3.7,105.1,0.47,23.7,33.9,"14:05:20",1
"20/09/05","14:20",0.0,35.8,48.6,1006.7,161.9,1.2,2.4,123.8,0.28,23.3,34.1,"14:19:52",1
"20/09/05","14:30",0.0,36.1,46.2,1006.7,299.4,1.5,3.7,222.0,0.44,22.8,33.7,"14:25:44",1
"20/09/05","14:40",0.0,36.7,45.7,1006.4,51.3,1.0,2.4,116.5,0.44,23.1,33.8,"14:33:04",1
"20/09/05","14:50",0.0,35.8,46.6,1006.0,136.9,1.3,3.6,110.9,0.24,22.6,33.7,"14:49:52",1
"20/09/05","15:00",0.0,35.7,44.7,1006.2,138.9,1.5,3.6,120.1,0.31,21.9,33.9,"14:51:04",1
"20/09/05","15:10",0.0,36.3,43.2,1006.2,42.8,1.3,3.6,353.3,0.36,21.8,33.6,"15:07:52",1
"20/09/05","15:20",0.0,36.5,43.4,1006.2,64.7,1.3,3.3,118.3,0.34,22.1,33.7,"15:17:04",1
"20/09/05","15:30",0.0,36.5,42.8,1006.0,108.4,1.2,2.8,132.1,0.32,21.9,33.8,"15:27:36",1
"20/09/05","15:40",0.0,36.4,43.2,1005.5,46.2,1.2,2.5,36.7,0.29,21.9,33.6,"15:34:32",1
"20/09/05","15:50",0.0,36.2,46.2,1005.5,130.6,1.2,2.9,117.1,0.27,22.8,33.6,"15:41:12",1
"20/09/05","16:00",0.0,36.0,45.4,1005.5,102.2,1.5,3.1,114.5,0.25,22.4,33.7,"15:57:12",1
"20/09/05","16:10",0.0,35.9,46.3,1005.0,107.9,1.1,2.8,109.3,0.22,22.6,33.5,"16:04:40",1
"20/09/05","16:20",0.0,35.6,47.0,1004.8,123.5,1.5,3.2,47.3,0.19,22.6,33.2,"16:19:12",1
"20/09/05","16:30",0.0,35.6,46.3,1004.8,114.1,1.2,2.8,126.0,0.16,22.3,33.1,"16:22:32",1
"20/09/05","16:40",0.0,35.8,47.8,1004.8,59.0,0.8,2.1,111.3,0.14,23.0,33.0,"16:39:52",1
"20/09/05","16:50",0.0,35.5,48.2,1004.8,83.0,1.2,2.6,111.2,0.12,22.9,32.9,"16:46:16",1
"20/09/05","17:00",0.0,35.5,52.3,1004.8,35.4,1.1,3.1,341.0,0.10,24.3,32.7,"16:58:48",1
"20/09/05","17:10",0.0,33.7,58.1,1004.3,357.4,1.6,3.4,357.5,0.04,24.4,32.4,"17:01:20",1
"20/09/05","17:20",0.0,33.1,60.6,1004.5,340.2,1.5,3.3,342.4,0.05,24.5,32.3,"17:13:04",1
"20/09/05","17:30",0.0,32.6,61.2,1004.3,347.9,1.2,2.9,339.8,0.01,24.2,32.2,"17:23:28",1
"20/09/05","17:40",0.0,32.0,63.1,1003.6,344.3,1.1,2.7,350.0,0.00,24.1,31.8,"17:36:08",1
"20/09/05","17:50",0.0,31.5,64.3,1003.6,334.6,0.6,1.8,352.9,0.00,24.0,31.8,"17:40:56",1
"20/09/05","18:00",0.0,31.1,65.4,1003.4,37.4,0.6,1.3,357.8,0.00,23.9,31.5,"17:51:20",1
"20/09/05","18:10",0.0,30.9,66.2,1003.1,339.2,0.7,1.7,336.2,0.00,23.9,31.5,"18:00:32",1
"20/09/05","18:20",0.0,30.7,65.3,1002.9,48.3,0.7,3.1,16.5,0.00,23.5,31.6,"18:17:20",1
"20/09/05","18:30",0.0,31.5,61.9,1003.1,71.2,1.2,3.4,62.5,0.00,23.3,31.4,"18:29:04",1
"20/09/05","18:40",0.0,31.8,57.7,1003.4,99.6,1.7,4.2,114.9,0.00,22.5,31.0,"18:36:16",1
"20/09/05","18:50",0.0,31.9,58.9,1003.8,172.7,1.6,4.3,209.7,0.00,22.9,30.8,"18:47:44",1
"20/09/05","19:00",0.0,31.4,60.5,1003.6,209.4,2.0,5.5,222.8,0.00,22.9,30.9,"18:50:40",1
"20/09/05","19:10",0.0,31.1,61.7,1003.8,219.2,1.0,2.2,219.4,0.00,22.9,30.7,"19:02:00",1
"20/09/05","19:20",0.0,30.9,64.1,1003.6,344.3,0.5,2.1,356.6,0.00,23.4,30.6,"19:17:04",1
"20/09/05","19:30",0.0,30.3,65.9,1003.4,341.2,1.0,2.5,350.9,0.00,23.3,30.4,"19:22:16",1
"20/09/05","19:40",0.0,30.0,67.1,1003.6,295.8,0.6,1.6,349.3,0.00,23.3,30.4,"19:32:08",1
"20/09/05","19:50",0.0,29.8,68.1,1004.1,309.3,0.3,1.0,352.6,0.00,23.3,30.2,"19:49:36",1
"20/09/05","20:00",0.0,29.5,69.9,1004.1,337.0,0.7,1.9,345.8,0.00,23.5,30.2,"19:54:48",1
"20/09/05","20:10",0.0,29.4,71.0,1004.1,337.5,0.8,1.6,352.1,0.00,23.6,30.1,"20:06:16",1
"20/09/05","20:20",0.0,29.2,72.6,1004.5,4.6,1.1,2.2,42.3,0.00,23.8,30.0,"20:17:12",1
"20/09/05","20:30",0.0,28.6,73.0,1005.0,17.7,0.7,1.4,3.6,0.00,23.3,29.8,"20:20:02",1
"20/09/05","20:40",0.0,28.6,72.1,1005.0,335.7,0.5,1.1,329.4,0.00,23.1,29.7,"20:30:02",1
"20/09/05","20:50",0.0,28.4,73.5,1005.0,288.4,0.7,1.2,260.4,0.00,23.2,29.8,"20:48:56",1
"20/09/05","21:00",0.0,28.2,75.7,1005.2,279.2,1.0,1.7,254.7,0.00,23.5,29.6,"20:52:48",1
"20/09/05","21:10",0.0,27.9,77.4,1005.0,350.5,1.0,1.3,342.4,0.00,23.6,29.5,"21:01:04",1
"20/09/05","21:20",0.0,27.4,78.4,1005.2,305.0,0.6,1.2,259.4,0.00,23.3,29.6,"21:15:20",1
"20/09/05","21:30",0.0,27.1,79.3,1005.0,339.0,1.0,2.5,317.6,0.00,23.2,29.3,"21:29:36",1
"20/09/05","21:40",0.0,26.9,79.8,1005.5,335.1,1.1,2.5,348.4,0.00,23.2,29.1,"21:30:40",1
"20/09/05","21:50",0.0,26.6,80.0,1005.0,359.3,0.1,0.8,108.0,0.00,22.9,29.0,"21:41:04",1
"20/09/05","22:00",0.0,26.5,80.8,1005.2,316.2,1.0,2.0,341.8,0.00,23.0,29.0,"21:55:12",1
"20/09/05","22:10",0.0,26.5,81.4,1005.2,327.6,1.0,1.9,331.7,0.00,23.1,28.8,"22:09:20",1
"20/09/05","22:20",0.0,26.4,81.8,1005.0,328.6,1.5,3.6,349.6,0.00,23.1,28.7,"22:14:32",1
"20/09/05","22:30",0.0,26.3,82.1,1005.0,316.3,1.0,1.7,330.0,0.00,23.0,28.8,"22:20:24",1
"20/09/05","22:40",0.0,26.2,82.6,1005.0,322.3,1.1,1.9,348.2,0.00,23.0,28.7,"22:32:40",1
"20/09/05","22:50",0.0,26.0,82.9,1005.2,328.8,1.0,2.5,353.1,0.00,22.9,28.5,"22:41:12",1
"20/09/05","23:00",0.0,25.9,83.4,1005.2,294.3,0.6,1.2,331.6,0.00,22.9,28.7,"22:58:40",1
"20/09/05","23:10",0.0,25.8,83.7,1005.0,315.0,0.7,1.6,301.0,0.00,22.9,28.3,"23:00:16",1
"20/09/05","23:20",0.0,25.7,84.2,1004.8,299.8,0.8,1.8,323.6,0.00,22.9,28.3,"23:11:20",1
"20/09/05","23:30",0.0,25.8,84.5,1004.5,264.6,0.7,1.4,262.6,0.00,23.0,28.1,"23:22:32",1
"20/09/05","23:40",0.0,25.7,84.7,1004.8,296.1,0.7,1.2,265.9,0.00,23.0,28.2,"23:37:28",1
"20/09/05","23:50",0.0,25.6,84.9,1005.0,305.6,0.6,1.3,342.3,0.00,22.9,28.1,"23:42:16",1
"20/09/05","24:00",0.0,25.6,85.2,1005.5,327.5,0.7,1.3,346.1,0.00,23.0,28.1,"23:59:44",1
